Other Public Products
Issued by NWS Charleston, SC

Current Version | Previous Version | Graphics & Text | Print | Product List | Glossary On
Versions: 1 2 3 4 5 6 7 8 9 10 11 12 13 14 15 16 17 18 19 20 21 22 23 24 25 26 27 28 29 30 31 32 33 34 35 36 37 38 39 40 41 42 43 44 45 46 47 48 49 50
000
FPUS82 KCHS 030927
OPUCHS

TEST...KCHS/KSAV Gateway Observations...TEST
National Weather Service Charleston SC
400 AM EST SAT DEC 03 2016

NOTE: "fair" indicates few or no clouds below 12,000 feet with no
significant weather and/or obstructions to visibility.

SCZ050-WAZ558-NCZ071-TXZ119-213-PAZ071-DCZ001-FLZ074-172-MI076-
NYZ176-178-MAZ016-IL014-TNZ027-NJZ106-GAZ044-MD014-031000-
...Gateway Observations for Charleston International...

CITY           SKY/WX    TMP DP  RH WIND       PRES   REMARKS
Chas Airport   PTCLDY    40  36  86 CALM      30.19S
Seattle        NOT AVBL
Charlotte      NOT AVBL
Dallas DFW     LGT RAIN  51  44  77 SE10      30.12S
Dallas Love    NOT AVBL
Philladelphia  CLOUDY    43  29  57 W10       30.03S
Wash National  MOCLDY    45  29  53 W9        30.14S
Baltimore      PTCLDY    42  30  62 W12       30.09F
Miami          PTCLDY    74  68  81 NE6       30.06S
Detroit        NOT AVBL
Newark         MOCLDY    42  31  64 W10       29.95S
Laguardia      PTCLDY    45  29  53 NW16G24   29.93S
J F K          PTCLDY    44  30  57 NW22G28   29.93F
Boston Logan   NOT AVBL
Ft. Lauderdale CLOUDY    75  67  76 NE10      30.06R
Chicago O`Hare CLOUDY    33  23  66 W7        30.33R WCI  27
Chicago Midway CLOUDY    34  21  59 W5        30.33S WCI  30
Houston Bush   HVY RAIN  51  48  89 NE15      29.97F
Houston Hobby  RAIN      54  52  93 NE14      29.94F FOG
Nashville      NOT AVBL
Atlanta        NOT AVBL

$$

GAZ044-118-TXZ119-213-NCZ071-DCZ001-MDZ014-506-PAZ021-071-NJZ106-
NYZ176-178-MAZ106-OHZ011-021-055-MIZ076-KYZ091-ILZ014-INZ047-
MNZ060-031000-
...Gateway Observations for Savannah International...

CITY           SKY/WX    TMP DP  RH WIND       PRES   REMARKS
Savannah Arpt  NOT AVBL
Atlanta        NOT AVBL
Charlotte      NOT AVBL
Dallas DFW     LGT RAIN  51  44  77 SE10      30.12S
Houston Bush   HVY RAIN  51  48  89 NE15      29.97F
Wash National  MOCLDY    45  29  53 W9        30.14S
Wash Dulles    CLOUDY    42  28  57 NW13      30.14R
Baltimore      PTCLDY    42  30  62 W12       30.09F
Philadelphia   CLOUDY    43  29  57 W10       30.03S
Newark         MOCLDY    42  31  64 W10       29.95S
Laguardia      PTCLDY    45  29  53 NW16G24   29.93S
J F K          PTCLDY    44  30  57 NW22G28   29.93F
Boston         NOT AVBL
Pittsburg      CLOUDY    37  30  75 W6        30.21R WCI  32
Akron          CLOUDY    35  27  72 NW13      30.24R WCI  26
Cleveland      CLOUDY    39  29  67 W8        30.27S WCI  33
Cincinnati     CLOUDY    36  35  96 CALM      30.32R
Columbus       CLOUDY    35  33  91 CALM      30.29F
Detroit        NOT AVBL
Chicago O`Hare CLOUDY    33  23  66 W7        30.33R WCI  27
Minneapolis    CLOUDY    30  22  72 W7        30.30S WCI  23
Indianapolis   CLOUDY    37  30  75 W8        30.34  WCI  31

$$




USA.gov is the U.S. government's official web portal to all federal, state and local government web resources and services.